Home   Weather   Kolkata   Past weeks

Flag for India Past Weather in Kolkata, West Bengal, India — Yesterday and Last 2 Weeks

Now
75 °F

Clear.


Feels Like: 78 °F
Forecast: 54 / 80 °F
Wind: 9 mph from North

Location: Calcutta / Dum Dum

Current Time: Jan 19, 2017 at 12:33:09 pm

Latest Report: Jan 19, 2017 at 11:30 am


Visibility: 2 mi

Pressure: 30.09 "Hg

Humidity: 47%

Dew Point: 54 °F

Location of KolkataLocation

Past Weather in Kolkata — Graph

°F

Kolkata Temperature Yesterday

Maximum temperature yesterday: 81 °F (at 2:00 pm)
Minimum temperature yesterday: 57 °F (at 4:00 am)
Average temperature yesterday: 67 °F

High & Low Weather Summary for the Past Weeks

 TemperatureHumidityPressure
High81 °F (Jan 9, 1:30 pm)100% (Jan 6, 6:30 am)30.12 "Hg (Jan 6, 6:30 am)
Low50 °F (Jan 15, 4:30 am)27% (Jan 14, 1:00 pm)29.80 "Hg (Jan 7, 3:30 pm)
Average65 °F65%29.94 "Hg
* Reported Jan 4 11:30 am — Jan 19 11:30 am, Kolkata, Weather by CustomWeather, © 2017

Note: Actual official high and low records may vary slightly from our data, if they occured in-between our weather recording intervals... More about our weather records

Advertising

Kolkata Weather History for the Previous 24 Hours

Scroll right to see more
 ConditionsComfort  
Time TempWeatherWind HumidityBarometerVisibility
11:30 am
Thu, Jan 19
75 °FClear.9 mph47%30.09 "Hg2 mi
11:00 am73 °FClear.12 mph50%30.09 "Hg1 mi
10:30 am72 °FClear.12 mph53%30.12 "Hg1 mi
10:00 am70 °FClear.12 mph57%30.12 "Hg1 mi
9:30 am68 °FClear.12 mph64%30.12 "Hg1 mi
9:00 am64 °FFog.8 mph78%30.12 "Hg1 mi
8:30 am63 °FFog.7 mph83%30.12 "Hg1 mi
8:00 am61 °FFog.7 mph83%30.09 "Hg1 mi
7:30 am59 °FFog.7 mph82%30.09 "Hg1 mi
7:00 am59 °FFog.6 mph82%30.07 "Hg1 mi
6:30 am57 °FFog.7 mph88%30.04 "Hg1 mi
6:00 am55 °FFog.7 mph88%30.04 "Hg1 mi
5:30 am55 °FFog.7 mph88%30.04 "Hg1 mi
5:00 am57 °FFog.7 mph82%30.04 "Hg1 mi
4:30 am57 °FHaze.7 mph82%30.04 "Hg1 mi
4:00 am59 °FHaze.7 mph77%30.04 "Hg1 mi
3:30 am59 °FHaze.6 mph77%30.04 "Hg1 mi
3:00 am59 °FHaze.7 mph77%30.04 "Hg1 mi
2:30 am59 °FHaze.7 mph77%30.04 "Hg1 mi
2:00 am59 °FHaze.8 mph77%30.04 "Hg1 mi
1:30 am59 °FHaze.6 mph77%30.04 "Hg1 mi
1:00 am61 °FHaze.5 mph77%30.07 "Hg1 mi
12:30 am61 °FHaze.3 mph77%30.07 "Hg1 mi
12:00 am61 °FHaze.3 mph77%30.07 "Hg1 mi
11:30 pm
Wed, Jan 18
63 °FHaze.3 mph73%30.07 "Hg1 mi
11:00 pm63 °FHaze.No wind73%30.09 "Hg1 mi
10:30 pm63 °FHaze.No wind73%30.09 "Hg1 mi
10:00 pm63 °FHaze.No wind73%30.09 "Hg1 mi
9:30 pm64 °FHaze.No wind68%30.09 "Hg1 mi
9:00 pm64 °FHaze.No wind68%30.09 "Hg1 mi
8:30 pm66 °FHaze.No wind68%30.09 "Hg1 mi
8:00 pm68 °FFog.No wind64%30.07 "Hg1 mi
7:30 pm68 °FFog.No wind69%30.07 "Hg1 mi
7:00 pm68 °FFog.No wind73%30.07 "Hg1 mi
6:30 pm70 °FHaze.No wind64%30.04 "Hg2 mi
6:00 pm72 °FHaze.No wind61%30.04 "Hg2 mi
5:30 pm72 °FHaze.3 mph53%30.04 "Hg2 mi
5:00 pm73 °FHaze.6 mph50%30.01 "Hg2 mi
4:30 pm75 °FHaze.7 mph44%30.01 "Hg2 mi
4:00 pm77 °FHaze.8 mph42%30.01 "Hg2 mi
3:30 pm79 °FHaze.9 mph37%30.01 "Hg2 mi
3:00 pm79 °FHaze.9 mph37%30.01 "Hg2 mi
2:30 pm81 °FHaze.12 mph34%30.01 "Hg2 mi
2:00 pm81 °FHaze.10 mph34%30.01 "Hg2 mi
1:30 pm79 °FHaze.10 mph37%30.04 "Hg2 mi
1:00 pm79 °FHaze.8 mph37%30.04 "Hg2 mi
12:30 pm79 °FHaze.9 mph37%30.07 "Hg2 mi
12:00 pm79 °FHaze.9 mph37%30.07 "Hg2 mi
Weather by CustomWeather, © 2017

See weather overviewHow to use our weather pages